Theta_e
307 306 307 306 306 307 308 310 313 316 318 318 317 316 312 308 306 305 305 306 308 311 313 311 314 318 317 316 317 316 313 312 313 313 314 317 317 315 312 311 307 305 308 308 317
306 307 305 305 306 306 307 312 311 314 316 318 318 315 310 307 306 305 305 305 308 309 313 312 316 316 315 315 315 314 312 313 313 313 312 311 314 314 309 309 307 306 307 311 317
307 307 306 305 305 305 306 311 312 313 315 317 319 315 308 305 306 305 306 305 309 309 310 314 316 315 314 315 315 314 312 313 314 313 313 310 306 310 309 303 298 298 302 309 316
307 306 305 305 305 305 305 308 312 312 313 316 318 313 307 308 305 313 311 306 308 310 311 316 316 314 312 314 315 314 313 313 314 314 312 308 303 299 299 297 297 298 301 309 313
306 306 305 305 304 304 305 306 312 313 312 315 316 309 310 309 308 312 312 310 307 309 315 317 314 313 312 312 314 313 313 311 309 309 305 305 301 299 297 296 297 298 302 302 303
306 305 305 303 304 304 305 305 311 313 312 314 313 312 308 312 309 310 312 310 308 310 315 318 315 314 313 313 313 314 312 310 309 308 307 305 303 302 297 297 297 298 297 297 299
303 305 303 303 303 302 304 305 310 312 311 313 311 312 311 310 311 313 312 312 310 307 313 318 315 314 313 311 315 313 312 311 310 308 306 308 302 299 296 297 294 293 293 295 296
303 302 302 302 302 304 304 307 310 312 310 311 311 312 309 309 313 314 313 314 311 308 311 316 315 313 313 313 312 311 310 312 312 310 309 307 303 298 296 297 292 291 291 290 292
303 299 300 300 300 301 303 309 310 310 308 310 312 310 308 309 310 312 314 313 311 307 311 315 314 313 313 310 310 310 311 311 313 312 309 306 301 296 294 293 291 289 289 289 289
301 298 297 298 298 301 308 311 309 307 312 312 312 312 308 309 310 315 313 315 311 313 313 312 312 309 308 309 312 311 311 310 313 307 302 300 298 295 293 291 290 288 287 287 287
300 297 296 297 297 305 311 312 312 310 310 309 310 308 309 309 313 318 312 313 312 312 310 311 310 310 310 309 310 309 311 310 309 304 301 299 297 294 292 290 288 288 287 286 285
298 296 296 296 297 307 311 316 315 314 311 309 312 310 311 313 316 317 312 312 311 310 309 310 310 309 309 310 310 311 311 308 305 302 300 297 296 293 291 289 288 287 285 285 284
297 298 296 296 296 304 311 313 313 313 312 313 310 311 310 313 315 314 313 311 309 309 309 310 309 310 311 311 311 311 310 310 309 300 298 297 296 293 290 288 287 285 284 284 283
300 300 297 296 297 297 310 314 314 313 308 311 312 312 310 311 311 315 313 311 310 309 309 310 310 310 311 311 310 311 310 310 304 308 309 301 307 294 290 287 286 284 283 283 282
300 300 298 296 305 302 304 302 312 310 309 311 312 311 310 311 310 311 312 311 309 310 309 311 311 311 311 312 309 311 310 309 309 309 306 304 306 294 290 288 285 284 282 282 281
304 299 296 296 309 309 313 304 307 312 309 314 311 311 310 310 310 310 311 311 311 310 310 310 311 310 310 311 309 310 311 311 310 310 313 308 309 298 293 291 285 283 282 281 280
305 308 306 302 307 312 312 313 310 311 310 313 313 312 311 311 310 310 310 310 311 311 311 312 312 311 311 312 311 312 311 313 314 314 314 308 309 294 289 287 285 282 281 280 279
306 306 308 306 307 310 312 314 310 308 314 313 313 312 312 311 310 310 309 310 309 310 310 312 313 311 310 311 312 311 312 314 317 317 315 306 306 293 287 285 283 282 280 279 279
310 307 304 306 310 312 313 312 311 310 308 311 312 312 313 312 311 310 308 310 309 310 312 311 313 307 308 309 311 312 314 311 313 312 311 298 290 289 286 284 282 281 280 279 278
309 310 305 311 309 313 313 311 308 306 307 308 313 312 314 313 312 310 309 305 306 304 304 310 313 307 307 308 309 311 310 315 312 316 316 301 293 296 287 285 284 281 279 278 278
307 310 309 310 312 313 313 308 305 304 306 309 308 308 311 313 312 311 309 300 298 302 302 305 309 306 307 302 307 310 312 311 312 312 313 309 302 289 288 286 284 281 279 278 278
308 302 312 312 308 306 309 301 300 301 302 306 305 305 303 304 311 304 305 300 297 297 304 300 302 304 301 299 298 298 301 305 314 312 307 305 294 283 288 285 282 279 278 278 278
301 300 309 307 305 302 298 299 298 300 298 301 307 304 302 302 306 299 297 296 298 299 300 298 300 301 302 301 298 298 296 298 301 304 307 308 292 282 282 281 280 279 278 278 278
299 297 302 308 302 303 300 300 298 296 296 296 299 300 300 304 300 297 296 296 296 298 300 299 297 299 307 302 300 298 295 295 297 302 298 293 283 281 280 279 278 278 278 277 277
297 293 295 298 299 298 303 299 298 298 296 295 295 300 303 304 301 299 296 296 295 296 295 298 296 295 294 294 293 292 293 293 292 287 297 285 282 281 277 275 277 277 277 277 276
294 293 295 293 294 295 296 298 298 294 295 295 295 295 299 301 303 300 296 297 300 295 294 295 296 294 293 292 291 289 288 289 287 285 283 283 280 275 276 276 276 277 276 276 276
292 293 294 293 292 294 294 295 296 293 293 293 294 293 293 292 293 294 294 293 293 294 293 295 295 293 292 291 291 291 283 286 283 281 284 288 281 275 275 276 276 276 275 275 275
Wind_Speed
11 10 10 9 9 10 9 9 11 11 12 11 13 14 14 15 16 19 25 15 18 12 15 17 18 20 14 8 8 3 3 2 2 6 5 4 6 14 17 24 21 15 18 9 15
12 12 11 11 10 9 10 9 10 11 13 11 12 12 12 13 15 24 18 19 20 14 20 23 25 21 10 8 5 2 2 4 2 7 6 12 16 11 11 17 16 20 17 14 16
13 12 12 11 10 9 9 9 8 11 12 12 10 11 11 10 8 15 17 20 18 18 17 23 22 16 7 9 6 5 3 2 13 25 19 16 20 9 8 14 15 12 13 14 14
13 13 13 12 11 9 8 9 7 10 12 13 11 12 12 12 6 2 6 21 23 19 20 25 22 11 5 5 11 5 4 3 1 14 9 8 12 21 26 12 11 13 13 13 15
14 14 14 13 10 9 8 8 6 8 12 13 14 15 13 9 7 2 3 16 25 22 24 25 23 11 6 7 10 4 8 15 27 33 35 39 29 20 25 16 13 13 13 16 15
15 15 14 11 13 7 9 7 5 7 12 14 15 16 13 4 7 6 3 15 23 26 27 26 17 17 10 7 7 11 19 27 24 23 10 21 14 8 13 12 17 15 19 18 16
17 15 13 10 9 9 8 7 5 5 11 15 17 16 12 15 5 6 8 11 22 26 31 28 8 19 7 4 15 12 9 12 9 11 11 22 15 13 14 14 20 20 19 19 20
16 15 12 9 9 8 6 7 3 4 10 14 15 16 8 9 8 6 8 16 20 22 28 26 18 16 3 2 4 7 9 5 4 11 8 4 6 11 10 14 21 18 17 18 20
17 14 11 9 5 4 7 2 2 6 11 14 13 8 6 7 15 9 7 18 22 22 22 15 13 5 6 5 3 1 5 6 3 7 5 6 10 12 12 20 19 18 18 16 18
18 14 10 7 4 4 4 6 8 13 15 15 7 4 12 9 14 16 11 15 25 20 15 12 6 4 2 4 12 8 5 4 7 3 14 22 18 15 15 21 18 17 17 18 18
19 14 9 7 6 9 13 14 10 5 16 8 11 3 3 8 18 19 18 21 19 19 5 6 4 9 8 6 3 7 5 7 5 12 11 17 16 11 14 19 16 16 16 17 17
20 14 9 7 9 15 20 9 3 2 6 19 8 15 4 15 13 20 24 11 10 6 6 3 9 7 5 5 7 2 4 6 12 11 11 14 14 9 11 14 15 15 15 14 13
20 14 9 8 11 18 24 13 6 4 3 6 26 16 11 14 9 25 27 9 5 6 7 8 5 10 8 5 7 5 7 13 8 12 14 16 6 5 10 16 16 15 14 13 13
19 12 8 8 8 15 24 15 6 7 2 5 10 8 17 11 3 26 27 11 4 11 8 4 6 12 6 9 7 5 7 16 19 6 5 11 4 5 10 9 11 12 13 12 12
16 8 6 12 7 11 7 17 14 2 2 4 5 8 18 12 11 10 28 7 7 6 7 8 6 5 6 8 8 7 11 17 13 5 6 7 1 2 12 8 8 11 12 12 12
11 5 3 12 8 10 8 14 14 3 6 4 6 6 7 5 2 8 10 8 2 4 1 6 2 6 9 3 9 7 8 6 3 3 4 11 7 7 10 10 11 12 12 10 10
7 5 3 7 6 7 12 18 3 4 2 4 4 6 8 5 4 4 12 8 6 5 5 2 2 1 3 4 3 4 6 2 2 3 4 9 8 4 6 13 18 18 16 11 9
3 5 3 4 7 12 16 2 4 3 1 2 4 8 6 7 3 6 9 11 4 3 4 6 3 7 3 4 6 6 9 6 7 5 4 2 4 3 10 19 21 19 17 12 9
1 3 4 3 6 12 12 4 4 1 2 6 5 6 3 3 5 4 7 11 6 6 5 5 4 1 2 1 3 5 6 5 5 2 4 5 4 2 12 15 19 18 14 12 8
1 1 3 1 9 14 2 5 3 2 0 1 1 5 6 11 5 7 10 1 5 2 1 4 3 1 1 1 1 3 3 2 1 6 6 3 4 4 19 17 16 16 15 11 8
1 1 4 5 11 7 5 3 1 0 1 4 3 3 2 6 6 6 7 2 2 2 2 2 3 1 1 4 1 1 3 2 3 4 5 4 3 3 17 17 15 16 15 11 8
2 2 2 10 3 1 2 0 1 1 3 2 4 2 3 6 3 3 6 2 1 1 6 0 4 3 0 1 3 2 1 1 4 5 1 3 3 7 13 20 22 17 14 10 6
2 2 2 6 2 2 1 1 2 1 2 1 4 1 3 1 2 2 3 2 1 2 5 5 1 3 1 1 1 2 2 1 2 2 3 4 3 4 19 19 17 21 14 10 6
2 1 1 3 1 2 3 4 3 1 1 2 0 1 4 3 3 4 2 1 1 3 6 5 4 2 6 2 3 5 3 3 2 3 4 3 9 7 9 13 16 14 12 9 6
4 1 1 2 1 2 0 1 2 4 2 2 2 5 4 5 2 4 3 1 3 1 3 3 5 4 8 6 6 5 5 3 4 1 3 7 7 15 10 12 17 14 11 8 6
4 4 3 1 5 3 2 5 7 2 3 3 4 1 5 4 4 7 6 5 4 0 2 2 4 3 5 7 7 6 7 11 8 5 8 7 4 5 13 15 15 13 9 8 10
7 3 3 3 2 0 2 2 3 7 1 1 6 4 3 2 10 15 13 10 5 5 4 5 7 4 3 6 4 2 2 3 4 4 2 4 4 15 6 13 14 10 7 8 10
Wind_Direction
322 312 312 311 311 313 315 281 243 230 224 225 221 224 222 219 217 215 221 215 203 187 174 174 165 164 166 172 202 256 77 225 208 132 151 3 104 64 70 87 66 71 95 109 114
321 317 309 306 309 313 317 297 252 227 218 212 220 220 218 220 223 230 218 202 190 181 181 176 166 164 160 176 189 124 111 241 271 123 116 72 78 84 74 67 63 74 82 103 110
322 316 311 306 306 309 318 310 266 230 216 202 208 212 203 204 233 252 224 205 191 191 191 179 167 167 157 158 182 154 198 341 60 113 116 102 66 62 101 47 40 46 51 79 104
323 319 311 304 306 307 313 317 283 234 213 198 197 201 182 180 191 155 184 199 194 182 183 178 177 173 147 161 187 135 236 51 56 121 95 71 91 70 70 91 76 65 58 73 84
323 315 309 305 296 307 309 316 293 232 207 194 193 182 174 205 236 151 171 186 185 178 182 180 178 170 163 185 172 154 99 74 97 99 89 92 78 96 80 84 79 72 70 65 65
316 313 309 304 306 304 306 310 289 231 202 191 185 178 184 221 221 224 212 174 181 186 184 183 192 186 185 180 166 191 111 121 108 108 89 97 73 80 78 91 74 67 59 58 55
317 311 307 307 300 311 302 301 287 227 196 185 181 182 203 216 202 233 245 217 194 190 186 188 170 199 175 141 204 132 111 105 143 128 132 93 41 82 101 87 69 62 57 56 51
325 310 303 298 301 288 296 294 282 204 183 178 171 187 237 226 196 218 235 202 195 194 195 188 201 215 210 230 123 136 124 130 227 180 148 108 121 94 99 92 72 64 60 57 51
326 314 299 292 268 270 292 259 174 160 158 158 166 177 247 221 217 215 207 184 182 179 184 191 202 216 182 109 55 27 163 123 171 16 112 80 136 116 96 90 80 68 63 58 55
326 313 297 281 242 205 198 132 132 138 132 135 138 219 240 212 193 183 170 171 158 158 160 182 176 141 77 135 190 180 138 140 143 76 63 93 111 99 91 89 85 74 65 61 55
326 316 296 262 211 168 151 131 117 135 170 190 201 220 313 180 177 175 163 151 154 154 143 164 141 200 191 171 139 145 143 120 75 121 78 102 112 107 100 90 85 79 71 64 56
324 315 289 245 195 182 175 172 176 215 237 211 184 216 155 153 159 177 169 154 157 164 125 83 226 207 180 175 197 134 123 79 80 108 90 116 101 100 96 93 94 91 78 70 63
325 316 283 229 195 194 191 174 139 236 258 214 220 215 193 184 173 178 180 160 133 142 173 168 226 174 174 182 194 194 166 174 145 103 75 120 109 128 103 103 96 88 87 74 63
325 316 267 208 187 202 210 181 165 16 0 211 179 215 190 180 210 187 187 162 155 188 154 216 226 173 174 211 161 194 193 145 141 154 175 222 191 171 152 117 103 100 89 80 71
337 322 233 182 169 173 183 216 213 282 271 137 161 177 176 165 136 177 186 193 170 171 139 229 189 151 180 197 157 219 136 151 163 139 116 209 163 79 146 165 144 122 105 88 76
10 24 192 182 166 151 145 150 151 82 252 180 149 161 134 153 111 139 164 190 195 144 163 206 210 172 192 143 170 156 93 58 67 107 234 181 185 188 184 180 148 130 118 104 85
27 38 107 154 140 157 153 149 102 201 348 174 182 163 160 148 126 160 174 178 174 138 173 146 206 206 140 110 112 137 118 114 163 212 219 175 187 51 109 136 146 139 124 112 94
33 48 94 153 169 153 161 1 201 208 286 332 135 138 185 141 156 170 146 190 248 125 139 152 219 180 180 177 176 184 180 159 185 185 169 71 198 135 116 118 127 130 129 122 102
102 67 61 153 173 178 164 191 252 239 342 341 87 147 208 190 136 142 181 198 190 192 173 158 216 37 70 75 143 205 211 166 101 82 121 119 83 126 141 135 135 135 134 123 109
144 56 0 249 179 177 218 207 190 210 206 325 323 196 180 182 145 164 170 164 187 179 225 180 120 316 105 27 1 180 176 147 45 173 215 206 198 177 178 168 157 150 142 136 122
107 27 19 140 155 181 221 199 89 85 142 55 4 310 295 178 178 196 181 23 34 130 75 127 108 225 140 16 179 161 188 202 160 171 192 163 206 18 172 166 160 152 153 147 134
77 61 127 137 141 290 196 337 298 352 349 155 146 27 328 350 172 145 185 60 344 232 154 150 106 121 174 334 29 66 89 302 180 204 81 141 195 327 161 150 144 145 149 147 141
49 89 150 178 155 256 306 327 24 310 321 170 223 198 137 45 191 89 105 351 78 101 156 170 123 97 31 271 45 84 14 310 112 49 187 156 180 74 115 124 140 145 155 158 159
349 39 78 202 167 179 190 208 213 244 290 301 225 78 123 184 14 135 113 339 339 107 82 101 81 153 189 139 109 143 54 29 89 123 161 180 154 175 150 137 145 152 158 167 178
31 89 39 287 306 316 150 134 175 193 180 214 255 220 164 180 141 168 118 178 54 63 74 90 107 107 57 62 84 77 54 20 90 105 143 165 145 175 162 154 158 161 167 181 207
43 17 350 287 302 284 325 215 199 179 176 228 231 132 182 201 223 180 157 193 174 45 90 45 122 101 60 64 82 86 43 79 84 99 75 111 80 149 150 149 154 165 182 210 219
38 4 304 338 350 45 264 311 223 146 45 249 158 111 93 58 103 110 121 100 96 142 144 133 141 135 134 131 123 37 347 53 98 49 100 171 137 149 152 163 171 187 216 239 228